Chillicothe, MO

2:54 AM CST on December 06, 2019 (GMT -0600)
Chillicothe

Weather History for KCDJ - October, 2019

Change the Weather History Date:

Tuesday, October 22, 2019

  Actual Average (WUND) Record (WUND)
Temperature  
Mean Temperature 47 °F -  
Max Temperature 57 °F - - (-1)
Min Temperature 37 °F - - (-1)
Degree Days  
Heating Degree Days 18    
Moisture  
Dew Point 34 °F    
Average Humidity 60    
Maximum Humidity 89    
Minimum Humidity 33    
Precipitation  
Precipitation 0.00 in - - ()
Sea Level Pressure  
Sea Level Pressure 29.91 in    
Wind  
Wind Speed 8 mph (West)    
Max Wind Speed 13 mph    
Max Gust Speed 30 mph    
Averages and records for this station are not official NWS values.
T = Trace of Precipitation, MM = Missing Value Source: NWS Daily Summary

Daily Weather History Graph

Daily Weather History Graph

Search for Another Location

Airport or City:

Astronomy

Oct. 22, 2019 Rise Set
Actual Time 7:31 AM CDT 6:25 PM CDT
Civil Twilight 7:04 AM CDT 6:52 PM CDT
Nautical Twilight 6:32 AM CDT 7:24 PM CDT
Astronomical Twilight 6:01 AM CDT 7:55 PM CDT
Moon 12:43 AM CDT (10/22) 3:34 PM CDT (10/22)
Length of Visible Light 11h 48m
Length of Day
10h 53m
Last Quarter, 37% of the Moon is Illuminated
Oct 22
Last Quarter
Oct 27
New
Nov 4
First Quarter
Nov 12
Full
Nov 19
Last Quarter

Hourly Weather History & Observations

Time (CDT) Temp. Windchill Dew Point Humidity Pressure Visibility Wind Dir Wind Speed Gust Speed Precip Events Conditions
12:52 AM 48.9 °F - 39.9 °F 71% 29.78 in - West 8.1 mph 19.6 mph N/A   Unknown
1:52 AM 48.9 °F - 39.9 °F 71% 29.78 in - Variable 5.8 mph - N/A   Unknown
2:52 AM 48.0 °F - 39.0 °F 71% 29.80 in - WSW 8.1 mph - N/A   Unknown
3:52 AM 46.9 °F - 37.9 °F 71% 29.79 in - West 9.2 mph 21.9 mph N/A   Unknown
4:52 AM 45.0 °F 40.6 °F 37.0 °F 74% 29.81 in - West 8.1 mph - N/A   Unknown
5:52 AM 45.0 °F 41.2 °F 36.0 °F 71% 29.84 in - Variable 6.9 mph - N/A   Unknown
6:52 AM 44.1 °F 40.1 °F 35.1 °F 71% 29.86 in - Variable 6.9 mph 18.4 mph N/A   Unknown
7:52 AM 43.0 °F 37.2 °F 33.1 °F 68% 29.88 in - West 10.4 mph 21.9 mph N/A   Unknown
8:52 AM 45.0 °F 40.1 °F 32.0 °F 60% 29.90 in - West 9.2 mph 25.3 mph N/A   Unknown
9:52 AM 48.0 °F - 33.1 °F 56% 29.93 in - North - - N/A   Unknown
10:52 AM 48.9 °F - 32.0 °F 52% 29.94 in - West 8.1 mph 23.0 mph N/A   Unknown
11:52 AM 53.1 °F - 32.0 °F 45% 29.95 in - WNW 8.1 mph 24.2 mph N/A   Unknown
12:52 PM 54.0 °F - 30.9 °F 41% 29.95 in - West 11.5 mph 25.3 mph N/A   Unknown
1:52 PM 55.0 °F - 30.0 °F 38% 29.94 in - West 10.4 mph 25.3 mph N/A   Unknown
2:52 PM 55.9 °F - 28.0 °F 34% 29.94 in - West 10.4 mph 29.9 mph N/A   Unknown
3:52 PM 55.9 °F - 28.0 °F 34% 29.95 in - West 12.7 mph 25.3 mph N/A   Unknown
4:52 PM 55.9 °F - 27.0 °F 33% 29.96 in - WNW 12.7 mph 25.3 mph N/A   Unknown
5:52 PM 55.0 °F - 28.0 °F 35% 29.97 in - West 8.1 mph - N/A   Unknown
6:52 PM 51.1 °F - 30.0 °F 44% 29.98 in - Calm Calm - N/A   Unknown
7:52 PM 45.0 °F - 35.1 °F 68% 29.99 in - Calm Calm - N/A   Unknown
8:52 PM 42.1 °F - 35.1 °F 76% 29.98 in - Calm Calm - N/A   Unknown
9:52 PM 41.0 °F - 36.0 °F 82% 29.98 in - Calm Calm - N/A   Unknown
10:52 PM 39.9 °F 36.7 °F 35.1 °F 83% 29.98 in - SSW 4.6 mph - N/A   Unknown
11:52 PM 37.9 °F 34.4 °F 35.1 °F 89% 29.96 in - SSW 4.6 mph - N/A   Unknown